This demonstration page uses our WeatherBlox Daily Observations layout. Learn more.

Hourly Observations for January 31, 2020

Temp ( °F °C ) Dew Point ( °F °C ) Humidity (%) Winds ( mph kmh ) Pressure ( in mb ) Visibility ( mi km ) Precip ( " mm )
12:15 am 00:15 Partly Cloudy 34 1.3 32 -0.1 91 91 NW 10 17 30.07 1018 10 16.0934 0 0
12:35 am 00:35 Partly Cloudy 34 1 32 -0.2 92 92 NW 10 17 30.08 1018 10 16.0934 0 0
12:55 am 00:55 Clear 35 1.5 32 0 90 90 NW 12 19 30.08 1019 10 16.0934 0 0
1:15 am 01:15 Clear 35 1.4 32 0 91 91 NW 13 20 30.08 1019 10 16.0934 0 0
1:35 am 01:35 Clear 34 1.1 32 -0.2 91 91 NW 12 19 30.08 1019 10 16.0934 0 0
1:55 am 01:55 Clear 34 1.1 31 -0.5 89 89 NW 13 20 30.08 1019 10 16.0934 0 0
2:15 am 02:15 Clear 34 1.1 31 -0.6 89 89 NW 14 22 30.08 1019 10 16.0934 0 0
2:35 am 02:35 Partly Cloudy 35 1.5 31 -0.5 87 87 NW 12 19 30.08 1019 10 16.0934 0 0
2:55 am 02:55 Mostly Cloudy 35 1.6 31 -0.3 87 87 NW 10 17 30.08 1019 10 16.0934 0 0
3:15 am 03:15 Cloudy 35 1.7 32 -0.2 87 87 NW 9 15 30.08 1019 10 16.0934 0 0
3:35 am 03:35 Cloudy 35 1.9 31 -0.4 85 85 WNW 12 19 30.08 1019 10 16.0934 0 0
3:55 am 03:55 Cloudy 36 2 31 -0.8 82 82 NW 15 24 30.08 1018 10 16.0934 0 0
4:15 am 04:15 Cloudy 36 2 30 -1.2 80 80 NW 14 22 30.08 1018 10 16.0934 0 0
4:35 am 04:35 Cloudy 35 1.5 30 -1 84 84 NW 9 15 30.08 1019 10 16.0934 0 0
4:55 am 04:55 Cloudy 35 1.6 29 -1.4 81 81 NW 12 19 30.08 1019 10 16.0934 0 0
5:15 am 05:15 Mostly Cloudy 34 1 28 -2 81 81 NW 12 19 30.1 1019 10 16.0934 0 0
5:35 am 05:35 Partly Cloudy 33 0.5 27 -2.6 80 80 NW 12 19 30.1 1019 10 16.0934 0 0
5:55 am 05:55 Clear 32 0.1 27 -3 80 80 NW 13 20 30.11 1020 10 16.0934 0 0
6:15 am 06:15 Clear 32 0 26 -3.5 78 78 NW 13 20 30.11 1020 10 16.0934 0 0
6:35 am 06:35 Clear 31 -0.4 26 -3.6 79 79 WNW 12 19 30.13 1020 10 16.0934 0 0
6:55 am 06:55 Clear 31 -0.6 25 -4 78 78 WNW 8 13 30.13 1020 10 16.0934 0 0
7:15 am 07:15 Clear 30 -1.1 24 -4.3 79 79 WNW 8 13 30.13 1020 10 16.0934 0 0
7:35 am 07:35 Clear 29 -1.4 24 -4.5 80 80 WNW 8 13 30.14 1021 10 16.0934 0 0
7:55 am 07:55 Sunny 29 -1.5 24 -4.7 79 79 WNW 9 15 30.15 1021 10 16.0934 0 0
8:15 am 08:15 Sunny 30 -1.1 24 -4.7 77 77 WNW 7 11 30.15 1021 10 16.0934 0 0
8:35 am 08:35 Sunny 31 -0.8 24 -4.5 76 76 WNW 9 15 30.14 1021 10 16.0934 0 0
8:55 am 08:55 Sunny 32 -0.2 24 -4.2 75 75 WNW 10 17 30.14 1021 10 16.0934 0 0
9:15 am 09:15 Sunny 32 0.2 25 -3.7 75 75 WNW 9 15 30.13 1020 10 16.0934 0 0
9:35 am 09:35 Mostly Cloudy 33 0.7 25 -4.1 71 71 NW 14 22 30.14 1021 10 16.0934 0 0
9:55 am 09:55 Mostly Cloudy 33 0.5 25 -3.8 73 73 NW 10 17 30.14 1021 10 16.0934 0 0
10:15 am 10:15 Partly Cloudy 35 1.5 25 -3.7 69 69 NW 15 24 30.14 1021 10 16.0934 0 0
10:35 am 10:35 Sunny 36 2 26 -3.5 67 67 WNW 14 22 30.14 1021 10 16.0934 0 0
10:55 am 10:55 Sunny 36 2.4 26 -3.5 65 65 WNW 14 22 30.13 1020 10 16.0934 0 0
11:15 am 11:15 Sunny 37 2.7 26 -3.1 66 66 NW 12 19 30.12 1020 10 16.0934 0 0
11:35 am 11:35 Sunny 38 3.3 27 -3 64 64 WNW 13 20 30.11 1020 10 16.0934 0 0
11:55 am 11:55 Sunny 39 3.8 27 -2.7 63 63 WNW 12 19 30.11 1020 10 16.0934 0 0
12:15 pm 12:15 Sunny 40 4.2 25 -4 56 56 NW 15 24 30.11 1019 10 16.0934 0 0
12:35 pm 12:35 Sunny 40 4.5 25 -4.1 54 54 NW 15 24 30.09 1019 10 16.0934 0 0
12:55 pm 12:55 Sunny 40 4.6 26 -3.5 56 56 NW 14 22 30.09 1019 10 16.0934 0 0
1:15 pm 13:15 Sunny 41 4.8 26 -3.5 55 55 NW 13 20 30.08 1019 10 16.0934 0 0
1:35 pm 13:35 Sunny 41 5 25 -3.7 54 54 NW 13 20 30.07 1018 10 16.0934 0 0
1:55 pm 13:55 Sunny 42 5.4 24 -4.4 50 50 NW 12 19 30.06 1018 10 16.0934 0 0
2:15 pm 14:15 Sunny 42 5.6 24 -4.2 50 50 NW 14 22 30.05 1018 10 16.0934 0 0
2:35 pm 14:35 Sunny 42 5.6 24 -4.2 50 50 WNW 9 15 30.04 1017 10 16.0934 0 0
2:55 pm 14:55 Sunny 42 5.8 24 -4.3 49 49 NW 10 17 30.05 1018 10 16.0934 0 0
3:15 pm 15:15 Sunny 43 6.1 24 -4.3 48 48 NW 13 20 30.04 1017 10 16.0934 0 0
3:35 pm 15:35 Sunny 43 6.2 23 -4.8 46 46 NW 9 15 30.04 1017 10 16.0934 0 0
3:55 pm 15:55 Sunny 43 6.2 23 -4.8 46 46 NW 12 19 30.05 1018 10 16.0934 0 0
4:15 pm 16:15 Sunny 43 6.1 23 -5.2 45 45 NW 8 13 30.05 1018 10 16.0934 0 0
4:35 pm 16:35 Sunny 42 5.4 24 -4.2 50 50 NNW 8 13 30.05 1018 10 16.0934 0 0
4:55 pm 16:55 Sunny 42 5.6 26 -3.6 52 52 NW 7 11 30.06 1018 10 16.0934 0 0
5:15 pm 17:15 Sunny 42 5.3 25 -3.7 53 53 NW 6 9 30.07 1018 10 16.0934 0 0
5:35 pm 17:35 Sunny 39 4 26 -3.3 59 59 NW 5 7 30.08 1019 10 16.0934 0 0
5:55 pm 17:55 Clear 37 3 25 -3.8 61 61 N 3 6 30.09 1019 10 16.0934 0 0
6:15 pm 18:15 Clear 37 3 25 -4 60 60 NNW 3 6 30.1 1019 10 16.0934 0 0
6:35 pm 18:35 Clear 34 1.1 26 -3.3 73 73 Calm 30.12 1020 10 16.0934 0 0
6:55 pm 18:55 Clear 33 0.7 26 -3.5 74 74 Calm 30.13 1020 10 16.0934 0 0
7:15 pm 19:15 Clear 33 0.6 25 -3.7 73 73 Calm 30.14 1021 10 16.0934 0 0
7:35 pm 19:35 Clear 32 0.2 26 -3.2 78 78 Calm 30.15 1021 10 16.0934 0 0
7:55 pm 19:55 Clear 32 0 26 -3.1 80 80 Calm 30.16 1021 10 16.0934 0 0
8:15 pm 20:15 Clear 31 -0.8 26 -3.1 85 85 Calm 30.16 1021 10 16.0934 0 0
8:35 pm 20:35 Clear 31 -0.5 26 -3.6 80 80 Calm 30.16 1021 10 16.0934 0 0
8:55 pm 20:55 Clear 30 -0.9 26 -3.1 85 85 Calm 30.16 1021 10 16.0934 0 0
9:15 pm 21:15 Clear 30 -1 25 -4 80 80 Calm 30.16 1021 10 16.0934 0 0
9:35 pm 21:35 Clear 29 -1.6 25 -4 84 84 Calm 30.18 1022 10 16.0934 0 0
9:55 pm 21:55 Clear 28 -2 25 -3.8 88 88 Calm 30.19 1022 10 16.0934 0 0
10:15 pm 22:15 Clear 29 -1.6 26 -3.5 87 87 SW 3 6 30.18 1022 10 16.0934 0 0
10:35 pm 22:35 Clear 29 -1.6 25 -3.7 86 86 SW 3 6 30.18 1022 10 16.0934 0 0
10:55 pm 22:55 Clear 30 -1 24 -4.3 79 79 SW 3 6 30.18 1022 10 16.0934 0 0
11:15 pm 23:15 Clear 31 -0.5 25 -4.1 77 77 SW 5 7 30.19 1022 10 16.0934 0 0
11:35 pm 23:35 Clear 32 -0.2 25 -4.1 75 75 SSW 5 7 30.18 1022 10 16.0934 0 0
11:55 pm 23:55 Clear 32 -0.1 25 -4 75 75 SSW 7 11 30.17 1022 10 16.0934 0 0

Powered by AerisWeather